Date String (YYYY-MM-DD hh:mm:ss) UTC,Instrument flags,Ambient pressure (hPa),Sample flow (lpm),Bypass flow (lpm),Sample temperature (°C),Ambient temperature (°C),ASC tube jacket temperature (°C),LED temperature (°C),Box temperature (°C),Sample RH (%),Span deviation,Mass concentration (μg/m³),Mass concentration (μg/m³),Mass concentration (μg/m³)
DateTimeUTC,F1_M11,P_M11,Q1_M11,Q2_M11,T1_M11,T2_M11,T3_M11,T4_M11,T5_M11,U1_M11,ZSPAN_M11,X0_M11,X2_M11,X1_M11
2023-05-10 23:00:00,,0826.0,5.00,0.00,29.5,27.7,00.0,38.0,31.1,27.4,0000.3,0013.71,0009.46,0008.76
2023-05-10 23:01:00,,0826.0,5.00,0.00,29.5,27.7,00.0,38.0,31.1,27.2,0000.3,0013.63,0009.33,0008.66
2023-05-10 23:02:00,,0825.9,5.00,0.00,29.5,27.7,00.0,38.0,31.1,27.1,0000.5,0013.52,0009.25,0008.59
2023-05-10 23:03:00,,0825.9,5.01,0.00,29.5,27.7,00.0,38.0,31.1,27.1,0000.3,0013.47,0009.17,0008.51
2023-05-10 23:04:00,,0825.9,5.02,0.00,29.5,27.7,00.0,38.0,31.2,27.4,0000.2,0013.46,0009.11,0008.44
2023-05-10 23:05:00,,0825.8,5.00,0.00,29.5,27.7,00.0,38.0,31.1,27.2,0000.1,0013.32,0008.99,0008.35
2023-05-10 23:06:00,,0825.7,5.00,0.00,29.5,27.7,00.0,38.0,31.2,26.3,0000.2,0013.15,0008.85,0008.21
2023-05-10 23:07:00,,0825.7,5.00,0.00,29.5,27.7,00.0,38.0,31.2,26.2,0000.3,0013.05,0008.73,0008.09
2023-05-10 23:08:00,,0825.7,5.00,0.00,29.5,27.7,00.0,38.0,31.2,26.7,0000.4,0013.10,0008.68,0008.02
2023-05-10 23:09:00,,0825.7,4.99,0.00,29.5,27.8,00.0,38.0,31.2,27.5,0000.4,0013.17,0008.66,0008.01
2023-05-10 23:10:00,,0825.8,5.00,0.00,29.5,27.8,00.0,38.0,31.2,27.9,0000.2,0013.14,0008.71,0008.04
2023-05-10 23:11:00,,0825.8,5.00,0.00,29.5,27.8,00.0,38.0,31.2,27.9,0000.1,0012.98,0008.78,0008.09
2023-05-10 23:12:00,,0825.7,4.99,0.00,29.5,27.8,00.0,38.0,31.2,28.0,0000.3,0013.04,0008.87,0008.17
2023-05-10 23:13:00,,0825.8,5.01,0.00,29.5,27.8,00.0,38.0,31.2,27.8,0000.5,0013.18,0008.99,0008.28
2023-05-10 23:14:00,,0825.8,5.00,0.00,29.5,27.8,00.0,38.0,31.2,27.4,0000.7,0013.38,0009.05,0008.32
2023-05-10 23:15:00,,0825.8,4.99,0.00,29.5,27.8,00.0,38.0,31.2,27.4,0000.9,0013.57,0009.12,0008.38
2023-05-10 23:16:00,,0825.8,4.99,0.00,29.5,27.8,00.0,38.0,31.2,27.5,0001.0,0013.79,0009.24,0008.47
2023-05-10 23:17:00,,0825.7,5.00,0.00,29.5,27.8,00.0,38.0,31.2,27.7,0000.8,0014.07,0009.40,0008.60
2023-05-10 23:18:00,,0825.7,5.00,0.00,29.5,27.8,00.0,38.0,31.2,27.8,0000.8,0014.65,0009.57,0008.75
2023-05-10 23:19:00,,0825.7,5.00,0.00,29.5,27.8,00.0,38.0,31.2,27.8,0000.7,0014.77,0009.69,0008.88
2023-05-10 23:20:00,,0825.7,5.01,0.00,29.5,27.9,00.0,38.0,31.2,28.2,0000.9,0014.80,0009.78,0008.97
2023-05-10 23:21:00,,0825.7,5.00,0.00,29.5,27.9,00.0,38.0,31.2,28.4,0001.0,0014.99,0009.86,0009.03
2023-05-10 23:22:00,,0825.7,5.00,0.00,29.5,27.9,00.0,38.0,31.2,28.6,0001.2,0015.12,0009.96,0009.08
2023-05-10 23:23:00,,0825.7,4.98,0.00,29.6,28.0,00.0,38.0,31.2,28.7,0001.2,0015.35,0010.05,0009.12
2023-05-10 23:24:00,,0825.7,5.00,0.00,29.6,28.0,00.0,38.0,31.3,28.5,0000.8,0015.42,0010.03,0009.12
2023-05-10 23:25:00,,0825.7,5.01,0.00,29.6,28.0,00.0,38.0,31.3,28.4,0000.6,0015.92,0010.04,0009.14
2023-05-10 23:26:00,,0825.6,5.01,0.00,29.6,28.0,00.0,38.0,31.3,28.3,0000.8,0015.92,0010.04,0009.15
2023-05-10 23:27:00,,0825.7,5.00,0.00,29.6,28.1,00.0,38.0,31.3,28.2,0000.6,0016.67,0010.05,0009.14
2023-05-10 23:28:00,,0825.6,4.99,0.00,29.6,28.1,00.0,38.0,31.3,28.1,0000.6,0016.91,0010.06,0009.14
2023-05-10 23:29:00,,0825.7,5.00,0.00,29.6,28.1,00.0,38.0,31.3,28.0,0000.5,0016.50,0010.05,0009.14
2023-05-10 23:30:00,,0825.6,5.00,0.00,29.6,28.1,00.0,38.0,31.3,27.9,0000.4,0016.51,0010.05,0009.11
2023-05-10 23:31:00,,0825.7,5.00,0.00,29.6,28.2,00.0,38.0,31.3,27.9,0000.2,0016.74,0010.02,0009.07
2023-05-10 23:32:00,,0825.6,4.99,0.00,29.6,28.2,00.0,38.0,31.3,27.9,0000.1,0016.65,0009.93,0009.01
2023-05-10 23:33:00,,0825.5,5.00,0.00,29.7,28.2,00.0,38.0,31.3,27.7,-000.2,0016.46,0009.76,0008.92
2023-05-10 23:34:00,,0825.5,5.00,0.00,29.7,28.1,00.0,38.0,31.3,27.5,-000.4,0016.12,0009.59,0008.82
2023-05-10 23:35:00,,0825.4,5.00,0.00,29.7,28.1,00.0,38.1,31.3,26.6,-000.5,0016.00,0009.46,0008.67
2023-05-10 23:36:00,,0825.4,4.98,0.00,29.7,28.1,00.0,38.1,31.3,25.6,-000.4,0015.05,0009.23,0008.44
2023-05-10 23:37:00,,0825.3,5.00,0.00,29.7,28.1,00.0,38.1,31.3,25.2,-000.6,0014.79,0009.01,0008.22
2023-05-10 23:38:00,,0825.3,5.01,0.00,29.7,28.1,00.0,38.1,31.3,25.1,-000.4,0013.85,0008.77,0008.00
2023-05-10 23:39:00,,0825.2,5.02,0.00,29.7,28.1,00.0,38.1,31.3,25.1,-000.5,0013.18,0008.50,0007.77
2023-05-10 23:40:00,,0825.3,4.98,0.00,29.7,28.1,00.0,38.1,31.3,25.1,-000.8,0012.98,0008.29,0007.55
2023-05-10 23:41:00,,0825.2,5.00,0.00,29.7,28.1,00.0,38.1,31.3,25.4,-000.4,0012.82,0008.10,0007.36
2023-05-10 23:42:00,,0825.2,5.01,0.00,29.7,28.1,00.0,38.1,31.3,25.5,-000.1,0012.36,0007.89,0007.16
2023-05-10 23:43:00,,0825.2,4.99,0.00,29.7,28.1,00.0,38.1,31.3,25.6,-000.0,0012.03,0007.70,0006.97
2023-05-10 23:44:00,,0825.2,5.01,0.00,29.7,28.1,00.0,38.1,31.4,25.6,0000.5,0011.72,0007.53,0006.80
2023-05-10 23:45:00,,0825.1,5.01,0.00,29.7,28.1,00.0,38.1,31.3,26.7,0000.5,0011.49,0007.39,0006.66
2023-05-10 23:46:00,,0825.1,5.00,0.00,29.7,28.1,00.0,38.1,31.4,26.9,0000.5,0011.41,0007.36,0006.64
2023-05-10 23:47:00,,0825.0,5.00,0.00,29.7,28.1,00.0,38.1,31.4,26.7,0000.5,0011.52,0007.45,0006.70
2023-05-10 23:48:00,,0825.0,5.00,0.00,29.7,28.1,00.0,38.1,31.4,26.9,0000.5,0011.53,0007.52,0006.78
2023-05-10 23:49:00,,0824.9,5.01,0.00,29.7,28.1,00.0,38.1,31.4,26.9,0000.6,0011.64,0007.62,0006.87
2023-05-10 23:50:00,,0824.9,4.98,0.00,29.7,28.1,00.0,38.1,31.4,27.2,0000.8,0012.56,0007.75,0006.98
2023-05-10 23:51:00,,0824.9,5.01,0.00,29.7,28.2,00.0,38.1,31.4,27.5,0000.9,0012.78,0007.85,0007.08
2023-05-10 23:52:00,,0824.9,4.99,0.00,29.7,28.2,00.0,38.1,31.4,27.9,0000.5,0012.76,0007.91,0007.19
2023-05-10 23:53:00,,0824.9,5.01,0.00,29.7,28.2,00.0,38.1,31.4,27.9,0000.0,0012.89,0007.98,0007.29
2023-05-10 23:54:00,,0824.8,5.01,0.00,29.7,28.2,00.0,38.1,31.4,28.0,-000.1,0012.98,0008.11,0007.42
2023-05-10 23:55:00,,0824.9,4.99,0.00,29.7,28.2,00.0,38.1,31.4,28.0,-000.3,0013.06,0008.22,0007.55
2023-05-10 23:56:00,,0824.9,5.01,0.00,29.7,28.2,00.0,38.1,31.4,28.0,-000.4,0013.51,0008.35,0007.66
2023-05-10 23:57:00,,0824.9,5.01,0.00,29.7,28.2,00.0,38.1,31.4,27.7,-000.3,0013.80,0008.40,0007.68
2023-05-10 23:58:00,,0824.9,5.00,0.00,29.8,28.3,00.0,38.1,31.4,27.5,-000.1,0013.82,0008.43,0007.72
2023-05-10 23:59:00,,0825.0,5.00,0.00,29.8,28.3,00.0,38.2,31.4,27.2,-000.2,0013.99,0008.48,0007.75
